Regional Weather Roundup
Issued by NWS

Home | Current Version | Previous Version | Graphics & Text | Print | Product List | Glossary On
Versions: 1 2 3 4 5 6 7 8 9 10 11 12 13 14 15 16 17 18 19 20 21 22 23 24 25 26 27 28 29 30 31 32 33 34 35 36 37 38 39 40 41 42 43 44 45 46 47 48 49 50
000
ASUS45 KSLC 021410
RWRUT

UTAH REGIONAL WEATHER ROUNDUP
NATIONAL WEATHER SERVICE SALT LAKE CITY UT
700 AM MST MON MAR 02 2015

UTZ001>011-023>025-021500-

NORTHERN UTAH

CITY           SKY/WX    TMP DP  RH WIND       PRES   REMARKS
BRIGHAM CITY   CLOUDY    33  22  64 NW6       29.82R WCI  28
HILL AFB       CLOUDY    35  27  70 E13       29.80R WCI  27
LOGAN          CLOUDY    29  23  78 CALM      29.81F
OGDEN          CLOUDY    36  28  73 W5        29.81R WCI  32
PROVO AIRPORT  CLOUDY    36  32  87 NW5       29.79F WCI  32
SALT LAKE CITY CLOUDY    39  31  72 S6        29.79F WCI  35
VERNAL         LGT SNOW  32  31  96 NW3       29.84F VSB 3/4
WENDOVER       CLOUDY    32  18  55 NE5       29.80F WCI  27
HEBER CITY     LGT SNOW  32  30  93 CALM      29.80S
WEST JORDAN    CLOUDY    36  36 100 CALM      29.79F

$$

UTZ012>022-026-027-021500-

SOUTHERN/CENTRAL UTAH

CITY           SKY/WX    TMP DP  RH WIND       PRES   REMARKS
BLANDING       CLOUDY    35  35 100 SE9       29.96F WCI  28
BRYCE CANYON   LGT SNOW  29  28  96 S8        29.79F VSB 3/4 WCI  21
CEDAR CITY     LGT SNOW  32  30  92 CALM      29.76F FOG
DELTA          CLOUDY    34  34 100 CALM      29.77F
HANKSVILLE     CLOUDY    32  32 100 CALM      29.86F
MILFORD        LGT SNOW  33  31  92 CALM      29.78S VSB 1
MOAB/CYNLANDS  CLOUDY    36  36 100 SE3       29.82F
PRICE          LGT SNOW  32  29  88 CALM      29.81F FOG
ST GEORGE      CLOUDY    39  36  87 SE5       29.84S
KANAB          CLOUDY    34  34 100 NW6       29.84F WCI  29

$$

REGIONAL REPORTS     COLORADO/ARIZONA

CITY           SKY/WX    TMP DP  RH WIND       PRES   REMARKS
CRAIG, CO        N/A     32  29  88 MISG      29.85F
GRAND JUNCTION CLOUDY    36  35  96 SE6       29.82F WCI  31
RIFLE          LGT RAIN  33  32  96 SW5       29.86F FOG     WCI  29
MONTROSE       CLOUDY    38  30  73 SE8       29.89F WCI  32
CORTEZ         PTCLDY    42  35  76 S12       29.94F
PAGE, AZ       CLOUDY    38  35  89 CALM      29.80F FOG
GRAND CANYON   FLURRIES  37  35  92 S12       29.82F WCI  29
KINGMAN        LGT RAIN  41  37  86 S6        29.83F
FLAGSTAFF      LGT RAIN  37  34  89 S17G30    29.86F WCI  27

$$

REGIONAL REPORTS    NEVADA/IDAHO/WYOMING

CITY           SKY/WX    TMP DP  RH WIND       PRES   REMARKS
LAS VEGAS, NV  LGT RAIN  45  40  82 S7        29.78F
ELY            CLOUDY    25  24  96 NW3       29.75S
ELKO           CLOUDY    22  18  85 NE3       29.78F
POCATELLO, ID  PTCLDY    13  11  92 CALM      29.85F
BURLEY         CLEAR     18  11  74 CALM      29.82S
EVANSTON, WY   LGT SNOW  23  20  88 E13       29.79F FOG     WCI  11
ROCK SPRINGS   LGT SNOW  22  17  81 NE5       29.84F WCI  16
KEMMERER       CLOUDY    23  19  86 CALM      29.83F

$$



USA.gov is the U.S. government's official web portal to all federal, state and local government web resources and services.